Hourly Data Report for November 26, 2019

MIRAMICHI RCS
NEW BRUNSWICK
Current Station Operator: ECCC - MSC

47°00'34.000" N
65°27'54.000" W
33.00 m
8100989
71744
ACQ

Download Data

Hourly Data (November 2019)
Hourly Data Report for November 26, 2019
TIME
LST
Temp Definition
°C
Dew Point Definition
°C
Rel Hum Definition
%
Precip. Amount Definition
mm

Wind Dir Definition
10's deg

Wind Spd Definition
km/h
Visibility Definition
km
Stn Press Definition
kPa
Hmdx Definition


Wind Chill Definition


Weather Definition


00:00 1.5 -0.9 84 0.0 25 23   100.12     LegendNANA
01:00 0.7 -1.0 88 0.0 25 13   100.14     LegendNANA
02:00 0.4 -1.3 88 0.0 24 20   100.19     LegendNANA
03:00 0.3 -1.4 88 0.0 25 16   100.27     LegendNANA
04:00 -0.3 -1.6 91 0.0 25 13   100.33   -4 LegendNANA
05:00 0.2 -1.4 89 0.0 25 18   100.38     LegendNANA
06:00 0.4 -1.3 88 0.0 25 23   100.40     LegendNANA
07:00 -0.1 -1.7 89 0.0 25 16   100.49   -5 LegendNANA
08:00 0.0 -1.8 88 0.0 25 14   100.57   -4 LegendNANA
09:00 1.0 -1.3 85 0.0 24 16   100.64     LegendNANA
10:00 2.1 -0.9 81 0.0 25 21   100.66     LegendNANA
11:00 3.3 -0.6 75 0.0 25 20   100.69     LegendNANA
12:00 3.6 -0.5 74 0.0 24 22   100.69     LegendNANA
13:00 4.0 -0.5 73 0.0 24 21   100.68     LegendNANA
14:00 3.6 0.2 78 0.0 23 20   100.64     LegendNANA
15:00 4.7 0.1 72 0.0 25 19   100.62     LegendNANA
16:00 4.2 -0.4 72 0.0 24 14   100.64     LegendNANA
17:00 3.4 0.2 80 0.0 24 11   100.65     LegendNANA
18:00 2.8 0.4 84 0.0 24 6   100.57     LegendNANA
19:00 1.8 0.3 90 0.0 11 3   100.52     LegendNANA
20:00 1.2 0.5 95 0.0 19 3   100.52     LegendNANA
21:00 1.2 0.6 96 0.2 0 1   100.48     LegendNANA
22:00 2.2 1.2 93 0.0 24 10   100.46     LegendNANA
23:00 2.4 1.4 93 0.0 26 9   100.49     LegendNANA

Notes on Data Quality.

Legend

  • E = Estimated
  • M = Missing
  • NA = Not Available*
  • [empty] = Indicates an unobserved value
Date modified: